Date String (YYYY-MM-DD hh:mm:ss) UTC,Instrument flags,Ambient pressure (hPa),Sample flow (lpm),Bypass flow (lpm),Sample temperature (°C),Ambient temperature (°C),ASC tube jacket temperature (°C),LED temperature (°C),Box temperature (°C),Sample RH (%),Span deviation,Mass concentration (μg/m³),Mass concentration (μg/m³),Mass concentration (μg/m³)
DateTimeUTC,F1_M11,P_M11,Q1_M11,Q2_M11,T1_M11,T2_M11,T3_M11,T4_M11,T5_M11,U1_M11,ZSPAN_M11,X0_M11,X2_M11,X1_M11
2022-09-11 20:00:00,,0832.8,4.99,0.00,30.5,29.2,00.0,39.2,32.3,17.7,0000.9,0010.60,0007.33,0007.09
2022-09-11 20:01:00,,0832.9,5.01,0.00,30.5,29.3,00.0,39.2,32.3,17.7,0001.3,0010.69,0007.35,0007.11
2022-09-11 20:02:00,,0832.8,4.99,0.00,30.5,29.3,00.0,39.2,32.3,18.5,0001.6,0010.73,0007.41,0007.14
2022-09-11 20:03:00,,0832.8,5.01,0.00,30.5,29.4,00.0,39.2,32.4,18.3,0001.8,0010.59,0007.43,0007.16
2022-09-11 20:04:00,,0832.8,4.99,0.00,30.6,29.4,00.0,39.2,32.4,18.4,0001.4,0010.53,0007.45,0007.18
2022-09-11 20:05:00,,0832.7,5.00,0.00,30.6,29.4,00.0,39.3,32.4,18.1,0001.5,0010.56,0007.46,0007.19
2022-09-11 20:06:00,,0832.7,4.99,0.00,30.6,29.5,00.0,39.3,32.5,18.0,0001.3,0010.59,0007.45,0007.20
2022-09-11 20:07:00,,0832.7,5.00,0.00,30.6,29.5,00.0,39.3,32.5,18.0,0001.4,0009.86,0007.45,0007.20
2022-09-11 20:08:00,,0832.8,4.99,0.00,30.7,29.5,00.0,39.3,32.5,17.8,0001.5,0009.88,0007.45,0007.21
2022-09-11 20:09:00,,0832.8,5.01,0.00,30.7,29.5,00.0,39.3,32.5,17.7,0001.7,0009.87,0007.47,0007.22
2022-09-11 20:10:00,,0832.8,4.98,0.00,30.7,29.3,00.0,39.3,32.5,18.0,0002.0,0009.79,0007.46,0007.23
2022-09-11 20:11:00,,0832.8,5.00,0.00,30.7,27.8,00.0,39.3,32.4,18.3,0001.9,0009.79,0007.47,0007.23
2022-09-11 20:12:00,,0832.7,5.02,0.00,30.6,26.8,00.0,39.3,32.3,18.0,0001.2,0009.75,0007.46,0007.24
2022-09-11 20:13:00,,0832.7,4.99,0.00,30.6,26.8,00.0,39.2,32.2,17.9,0001.3,0009.76,0007.45,0007.24
2022-09-11 20:14:00,,0832.7,5.00,0.00,30.4,27.0,00.0,39.1,32.0,18.3,0001.1,0009.72,0007.42,0007.23
2022-09-11 20:15:00,,0832.7,5.00,0.00,30.4,27.4,00.0,39.1,31.9,18.6,0001.2,0009.76,0007.43,0007.22
2022-09-11 20:16:00,,0832.7,5.01,0.00,30.3,27.8,00.0,39.1,32.0,18.4,0001.2,0009.76,0007.41,0007.20
2022-09-11 20:17:00,,0832.7,4.99,0.00,30.3,28.1,00.0,39.1,32.0,18.0,0001.0,0009.59,0007.40,0007.19
2022-09-11 20:18:00,,0832.6,5.00,0.00,30.3,28.3,00.0,39.0,32.0,18.0,0001.0,0009.56,0007.39,0007.18
2022-09-11 20:19:00,,0832.7,5.02,0.00,30.3,28.5,00.0,39.0,32.0,18.0,0000.9,0009.60,0007.38,0007.17
2022-09-11 20:20:00,,0832.7,5.00,0.00,30.3,28.6,00.0,39.0,32.0,18.0,0000.6,0009.57,0007.38,0007.16
2022-09-11 20:21:00,,0832.6,5.00,0.00,30.3,28.8,00.0,39.0,32.1,18.2,0000.7,0009.56,0007.37,0007.14
2022-09-11 20:22:00,,0832.6,5.01,0.00,30.3,28.9,00.0,39.0,32.1,17.9,0000.8,0009.57,0007.36,0007.13
2022-09-11 20:23:00,,0832.6,4.99,0.00,30.3,29.0,00.0,39.0,32.1,18.2,0001.6,0009.56,0007.37,0007.13
2022-09-11 20:24:00,,0832.6,5.01,0.00,30.3,29.0,00.0,39.0,32.2,17.4,0001.9,0009.60,0007.40,0007.15
2022-09-11 20:25:00,,0832.6,5.01,0.00,30.4,29.1,00.0,39.1,32.2,16.9,0001.9,0010.63,0007.50,0007.20
2022-09-11 20:26:00,,0832.5,4.99,0.00,30.4,29.1,00.0,39.1,32.2,17.5,0002.1,0010.63,0007.52,0007.22
2022-09-11 20:27:00,,0832.5,5.01,0.00,30.4,29.2,00.0,39.1,32.3,17.2,0002.0,0011.13,0007.59,0007.27
2022-09-11 20:28:00,,0832.5,4.98,0.00,30.4,29.2,00.0,39.1,32.3,17.6,0002.7,0011.76,0007.66,0007.32
2022-09-11 20:29:00,,0832.5,5.00,0.00,30.4,29.3,00.0,39.1,32.3,17.9,0002.9,0011.78,0007.71,0007.36
2022-09-11 20:30:00,,0832.5,4.99,0.00,30.5,29.3,00.0,39.1,32.3,17.3,0002.8,0012.04,0007.74,0007.40
2022-09-11 20:31:00,,0832.4,5.01,0.00,30.5,29.3,00.0,39.1,32.3,17.6,0003.0,0012.07,0007.76,0007.43
2022-09-11 20:32:00,,0832.4,4.99,0.00,30.5,29.4,00.0,39.2,32.4,18.8,0003.0,0012.10,0007.80,0007.47
2022-09-11 20:33:00,,0832.4,5.01,0.00,30.5,29.5,00.0,39.2,32.4,18.6,0003.1,0012.17,0007.84,0007.51
2022-09-11 20:34:00,,0832.4,5.00,0.00,30.6,29.2,00.0,39.2,32.4,18.4,0002.7,0012.48,0007.87,0007.54
2022-09-11 20:35:00,,0832.4,5.00,0.00,30.6,28.0,00.0,39.2,32.3,17.5,0002.6,0012.67,0007.86,0007.55
2022-09-11 20:36:00,,0832.4,4.99,0.00,30.5,27.5,00.0,39.1,32.3,16.8,0002.7,0011.75,0007.83,0007.54
2022-09-11 20:37:00,,0832.3,5.00,0.00,30.5,27.6,00.0,39.1,32.1,16.7,0002.5,0011.77,0007.85,0007.56
2022-09-11 20:38:00,,0832.4,5.01,0.00,30.4,27.9,00.0,39.1,32.1,17.0,0002.5,0011.41,0007.83,0007.55
2022-09-11 20:39:00,,0832.3,5.00,0.00,30.4,28.1,00.0,39.1,32.1,17.4,0002.1,0010.79,0007.81,0007.54
2022-09-11 20:40:00,,0832.3,5.00,0.00,30.4,28.4,00.0,39.1,32.1,18.2,0001.5,0011.61,0007.82,0007.53
2022-09-11 20:41:00,,0832.3,4.99,0.00,30.4,28.6,00.0,39.1,32.1,18.4,0001.0,0011.48,0007.83,0007.52
2022-09-11 20:42:00,,0832.3,5.00,0.00,30.4,28.8,00.0,39.1,32.1,17.6,0001.1,0011.76,0007.86,0007.51
2022-09-11 20:43:00,,0832.3,5.00,0.00,30.4,28.9,00.0,39.1,32.2,17.0,0001.2,0011.86,0007.85,0007.51
2022-09-11 20:44:00,,0832.2,5.00,0.00,30.4,29.0,00.0,39.1,32.2,17.2,0000.8,0012.03,0007.84,0007.51
2022-09-11 20:45:00,,0832.3,5.01,0.00,30.4,29.1,00.0,39.1,32.2,17.7,0000.7,0012.05,0007.85,0007.50
2022-09-11 20:46:00,,0832.2,4.99,0.00,30.4,29.2,00.0,39.1,32.2,17.6,0000.8,0012.26,0007.85,0007.50
2022-09-11 20:47:00,,0832.3,5.01,0.00,30.4,29.2,00.0,39.1,32.3,16.9,0000.7,0012.50,0007.82,0007.50
2022-09-11 20:48:00,,0832.3,4.99,0.00,30.5,29.3,00.0,39.1,32.3,17.2,0000.3,0012.47,0007.81,0007.49
2022-09-11 20:49:00,,0832.2,5.00,0.00,30.5,29.3,00.0,39.2,32.4,17.3,-000.1,0012.45,0007.80,0007.51
2022-09-11 20:50:00,,0832.2,5.00,0.00,30.5,29.4,00.0,39.2,32.4,17.9,-000.3,0012.49,0007.81,0007.53
2022-09-11 20:51:00,,0832.2,5.00,0.00,30.5,29.2,00.0,39.2,32.4,18.0,-000.1,0011.72,0007.77,0007.54
2022-09-11 20:52:00,,0832.1,5.02,0.00,30.5,27.9,00.0,39.2,32.3,17.8,0000.2,0011.60,0007.77,0007.56
2022-09-11 20:53:00,,0832.1,4.99,0.00,30.5,26.7,00.0,39.1,32.2,18.1,0000.3,0011.31,0007.75,0007.57
2022-09-11 20:54:00,,0832.1,5.01,0.00,30.4,26.7,00.0,39.0,32.1,18.3,0000.1,0011.39,0007.73,0007.56
2022-09-11 20:55:00,,0832.1,4.98,0.00,30.3,27.0,00.0,39.0,31.9,17.8,0000.1,0012.02,0007.73,0007.54
2022-09-11 20:56:00,,0832.1,4.99,0.00,30.2,27.4,00.0,39.0,31.9,17.9,0000.0,0012.00,0007.72,0007.52
2022-09-11 20:57:00,,0832.1,5.01,0.00,30.2,27.7,00.0,38.9,31.9,17.8,-000.1,0011.56,0007.67,0007.48
2022-09-11 20:58:00,,0832.1,5.01,0.00,30.2,28.0,00.0,38.9,31.9,17.7,-000.0,0011.09,0007.66,0007.46
2022-09-11 20:59:00,,0832.1,5.00,0.00,30.2,28.2,00.0,38.9,31.9,17.6,0000.1,0011.06,0007.62,0007.42
